DW7346 Weather Reports


Display with metric or nautical units.
time (UTC)temp
F
wind
direction
speed
MPH
gust
MPH
rain 1hr
in
rain 24hr
in
rain mn
in
humidity
%
barometer
mb
20260901040028 86 115 0.0 1.0 0.00 0.00 0.00 53 1011.5
20260901034531 86 115 0.0 1.0 0.00 0.00 0.00 52 1011.5
20260901033039 86 115 0.0 0.0 0.00 0.00 0.00 51 1011.4
20260901031529 87 115 0.0 2.0 0.00 0.00 0.00 50 1011.4
20260901030026 88 115 0.0 1.0 0.00 0.00 0.00 49 1011.4
20260901024527 88 115 0.0 2.0 0.00 0.00 0.00 47 1011.2
20260901023025 89 115 0.0 1.0 0.00 0.00 0.00 47 1010.9
20260901021533 90 115 0.0 2.0 0.00 0.00 0.00 45 1010.7
20260901020044 91 115 0.0 2.0 0.00 0.00 0.00 44 1010.6
20260901014522 92 115 0.0 2.0 0.00 0.00 0.00 44 1010.4
20260901013023 93 114 0.0 3.0 0.00 0.00 0.00 43 1010.4
20260901011533 93 114 0.0 3.0 0.00 0.00 0.00 42 1010.2
20260901010021 95 113 0.0 3.0 0.00 0.00 0.00 41 1010.2
20260901004522 96 98 1.0 3.0 0.00 0.00 0.00 40 1010.2
20260901003020 97 119 0.0 2.0 0.00 0.00 0.00 39 1010.2
20260901001525 98 231 0.0 4.0 0.00 0.00 0.00 38 1010.1
20260901000019 99 121 1.0 5.0 0.00 0.00 0.00 37 1010.1
20260831234518 99 139 1.0 5.0 0.00 0.00 0.00 37 1010.2
20260831233033 100 137 1.0 7.0 0.00 0.00 0.00 38 1010.2
20260831231517 100 131 1.0 10.0 0.00 0.00 0.00 37 1010.2
20260831230015 100 108 3.0 9.0 0.00 0.00 0.00 36 1010.2
20260831224516 101 107 2.0 7.0 0.00 0.00 0.00 38 1010.3
20260831223013 101 134 2.0 8.0 0.00 0.00 0.00 38 1010.5
20260831221512 100 83 2.0 9.0 0.00 0.00 0.00 38 1010.5
20260831220010 101 223 1.0 8.0 0.00 0.00 0.00 39 1010.6
20260831214514 101 122 2.0 6.0 0.00 0.00 0.00 37 1010.7
20260831213009 99 250 1.0 8.0 0.00 0.00 0.00 39 1010.8
20260831211506 98 116 3.0 7.0 0.00 0.00 0.00 40 1010.9
20260831210005 98 193 2.0 7.0 0.00 0.00 0.00 40 1011.1
20260831204510 100 87 1.0 9.0 0.00 0.00 0.00 39 1011.4
20260831203004 100 117 3.0 12.0 0.00 0.00 0.00 39 1011.6
20260831201601 100 69 2.0 8.0 0.00 0.00 0.00 40 1011.7
20260831200058 97 98 1.0 7.0 0.00 0.00 0.00 43 1011.9
20260831194632 98 123 4.0 9.0 0.00 0.00 0.00 41 1012.1
20260831193056 99 266 1.0 8.0 0.00 0.00 0.00 42 1012.3
20260831191555 97 226 2.0 6.0 0.00 0.00 0.00 41 1012.4
20260831184612 98 124 0.0 8.0 0.00 0.00 0.00 43 1012.7
20260831183101 97 212 2.0 9.0 0.00 0.00 0.00 46 1012.8
20260831181550 98 212 1.0 5.0 0.00 0.00 0.00 46 1013.2
20260831180048 98 142 2.0 7.0 0.00 0.00 0.00 48 1013.5
20260831174549 97 219 1.0 7.0 0.00 0.00 0.00 49 1013.7
20260831173054 96 122 2.0 9.0 0.00 0.00 0.00 48 1013.9
20260831171537 96 205 1.0 8.0 0.00 0.00 0.00 50 1014.1
20260831170034 94 137 3.0 8.0 0.00 0.00 0.00 48 1014.2
20260831164534 94 196 2.0 5.0 0.00 0.00 0.00 50 1014.1
20260831163027 93 250 2.0 5.0 0.00 0.00 0.00 51 1014.2
20260831161523 92 212 1.0 8.0 0.00 0.00 0.00 54 1014.3
20260831160027 91 167 1.0 6.0 0.00 0.00 0.00 55 1014.4
20260831154519 89 257 2.0 10.0 0.00 0.00 0.00 57 1014.4
20260831153015 89 251 3.0 7.0 0.00 0.00 0.00 58 1014.2
20260831151510 88 215 2.0 6.0 0.00 0.00 0.00 62 1014.2
20260831150013 87 238 1.0 7.0 0.00 0.00 0.00 64 1014.1
20260831144512 86 214 2.0 9.0 0.00 0.00 0.00 65 1014.0
20260831143003 85 232 2.0 7.0 0.00 0.00 0.00 66 1014.0
20260831141501 85 158 4.0 7.0 0.00 0.00 0.00 68 1014.1
20260831140100 84 197 1.0 9.0 0.00 0.00 0.00 70 1014.1
20260831134559 83 227 1.0 3.0 0.00 0.00 0.00 73 1013.9
20260831133055 82 214 0.0 4.0 0.00 0.00 0.00 74 1013.7
20260831131552 81 234 1.0 5.0 0.00 0.00 0.00 76 1013.5
20260831130052 81 116 1.0 5.0 0.00 0.00 0.00 76 1013.2
20260831124549 80 252 2.0 4.0 0.00 0.00 0.00 77 1012.9
20260831123047 79 106 0.0 2.0 0.00 0.00 0.00 78 1012.8
20260831121545 79 169 0.0 2.0 0.00 0.00 0.00 77 1012.5
20260831120043 80 167 0.0 3.0 0.00 0.00 0.00 77 1012.4
20260831114541 80 167 0.0 1.0 0.00 0.00 0.00 76 1012.3
20260831113039 80 174 0.0 2.0 0.00 0.00 0.00 75 1012.2
20260831111555 81 179 0.0 2.0 0.00 0.00 0.00 74 1012.0
20260831110043 81 193 0.0 3.0 0.00 0.00 0.00 73 1011.9
20260831104534 81 191 1.0 3.0 0.00 0.00 0.00 72 1011.8
20260831103029 82 160 0.0 3.0 0.00 0.00 0.00 71 1011.9
20260831101528 82 188 0.0 4.0 0.00 0.00 0.00 69 1011.8
20260831100025 83 181 0.0 4.0 0.00 0.00 0.00 68 1011.7
20260831094526 83 209 2.0 5.0 0.00 0.00 0.00 67 1011.6
20260831093020 84 185 1.0 6.0 0.00 0.00 0.00 66 1011.6
20260831091519 84 223 2.0 6.0 0.00 0.00 0.00 65 1011.5
20260831090018 84 195 3.0 7.0 0.00 0.00 0.00 64 1011.4
20260831084531 84 200 3.0 8.0 0.00 0.00 0.00 64 1011.4
20260831083014 85 210 2.0 6.0 0.00 0.00 0.00 63 1011.4
20260831081520 85 182 2.0 8.0 0.00 0.00 0.00 62 1011.5
20260831080011 85 238 3.0 8.0 0.00 0.00 0.00 60 1011.4
20260831074530 86 217 3.0 8.0 0.00 0.00 0.00 59 1011.3
20260831073020 86 224 3.0 9.0 0.00 0.00 0.00 58 1011.2
20260831071509 86 255 2.0 7.0 0.00 0.00 0.00 57 1011.1
20260831070009 86 234 2.0 5.0 0.00 0.00 0.00 58 1011.1
20260831064520 86 207 1.0 5.0 0.00 0.00 0.00 58 1011.2
20260831063014 85 179 0.0 2.0 0.00 0.00 0.00 58 1011.3
20260831061506 85 158 0.0 3.0 0.00 0.00 0.00 58 1011.2
20260831060004 85 122 0.0 0.0 0.00 0.00 0.00 59 1011.2
20260831054504 85 105 0.0 0.0 0.00 0.00 0.00 59 1011.3
20260831053007 85 105 0.0 1.0 0.00 0.00 0.00 59 1011.3
20260831051600 86 105 0.0 2.0 0.00 0.00 0.00 58 1011.1
20260831050137 86 105 0.0 0.0 0.00 0.00 0.00 57 1011.0
20260831044558 86 105 0.0 0.0 0.00 0.00 0.00 57 1011.0
20260831043055 87 105 0.0 0.0 0.00 0.00 0.00 56 1011.0
20260831041556 88 105 0.0 2.0 0.00 0.00 0.00 55 1010.9